Regional Weather Roundup
Issued by NWS

Home | Current Version | Previous Version | Text Only | Print | Product List | Glossary On
Versions: 1 2 3 4 5 6 7 8 9 10 11 12 13 14 15 16 17 18 19 20 21 22 23 24 25 26 27 28 29 30 31 32 33 34 35 36 37 38 39 40 41 42 43 44 45 46 47 48 49 50
000
ASUS44 KFWD 291415
RWRTX
NORTH TEXAS HOURLY WEATHER ROUNDUP
NATIONAL WEATHER SERVICE FORT WORTH TX
900 AM CDT WED JUN 29 2016

NOTE: "FAIR" INDICATES FEW OR NO CLOUDS BELOW 12,000 FEET WITH NO
SIGNIFICANT WEATHER AND/OR OBSTRUCTIONS TO VISIBILITY.

TXZ118-119-291500-
DALLAS/FORT WORTH METROPLEX

CITY           SKY/WX    TMP DP  RH WIND       PRES   REMARKS
DFW AIRPORT    MOSUNNY   84  71  65 VRB3      30.06R
DALLAS LOVE    MOSUNNY   83  72  69 SE7       30.06R
FTW MEACHAM    SUNNY     84  70  62 NE5       30.07R
DAL-EXECUTIVE  SUNNY     82  71  69 E3        30.06R
FTW-ALLIANCE   MOSUNNY   82  71  69 VRB3      30.07R
FTW-NAS-JRB    MOSUNNY   81  71  71 N3        30.07S
FTW-SPINKS     SUNNY     79  73  83 CALM      30.09R
ARLINGTON      SUNNY     84  71  65 NE3       30.07R
GRAND PRAIRIE  SUNNY     81  70  69 CALM      30.08R
ADDISON        SUNNY     82  70  65 SE6       30.07R
MESQUITE       MOSUNNY   79  73  83 CALM      30.06R
LANCASTER      SUNNY     82  71  69 CALM      30.07R
$$

TXZ091>094-102>105-117-120-121-131>134-291500-
NORTH CENTRAL TEXAS

CITY           SKY/WX    TMP DP  RH WIND       PRES   REMARKS
SHRMAN/DENISON SUNNY     80  69  69 E3        30.09S
GAINESVILLE    SUNNY     79  70  73 SE3       30.11S
BOWIE          SUNNY     80  71  73 SE3       30.09F
BRIDGEPORT     SUNNY     77  74  89 CALM      30.11R
DECATUR        SUNNY     81  66  61 CALM      30.10R
DENTON         SUNNY     81  71  71 CALM      30.07S
MCKINNEY       SUNNY     80  70  71 CALM      30.07R
GREENVILLE     MOSUNNY   81  68  65 E3        30.07S
ROCKWALL       SUNNY     82  72  71 CALM      30.06R
TERRELL        SUNNY     83  73  72 NE5       30.06R
WAXAHACHIE     SUNNY     81  73  77 CALM      30.08R
CLEBURNE       SUNNY     81  75  83 NE6       30.09R
GRANBURY       SUNNY     78  73  84 N3        30.10R
$$

TXZ083>090-098>101-113>116-127>130-139>142-154-155-291500-
WESTERN NORTH TEXAS

CITY           SKY/WX    TMP DP  RH WIND       PRES   REMARKS
WICHITA FALLS  SUNNY     78  70  76 MISG      30.09R
WF-KICKAPOO    SUNNY     81  70  69 SE8       30.10S
VERNON         SUNNY     78  65  64 N7        30.12R
ABILENE        SUNNY     73  69  87 CALM      30.14R
ABILENE-DYESS  MOSUNNY   74  68  82 VRB3      30.12S
CISCO          FAIR      75  72  88 CALM      30.13R
BRECKENRIDGE   SUNNY     77  72  83 CALM      30.11R
GRAHAM         SUNNY     80  73  80 CALM      30.09R
MINERAL WELLS  SUNNY     78  71  79 CALM      30.08R
STEPHENVILLE   SUNNY     78  69  73 NE3       30.12S
COMANCHE       SUNNY     74  73  94 CALM      30.10S
BROWNWOOD      SUNNY     75  72  88 N5        30.11R
COLEMAN        SUNNY     78  68  71 NE5       30.12R
$$

TXZ143>147-156>162-174-175-291500-
CENTRAL TEXAS

CITY           SKY/WX    TMP DP  RH WIND       PRES   REMARKS
WACO           SUNNY     79  71  76 N6        30.05R
WACO-TSTC      SUNNY     79  73  83 NE6       30.05R
WACO-MCGREGOR  SUNNY     79  72  79 VRB3      30.06R
HILLSBORO      SUNNY     81  72  74 E5        30.06S
CORSICANA      PTSUNNY   83  73  72 E6        30.06R
MEXIA          MOSUNNY   80  75  86 NE5       30.04S
CAMERON        SUNNY     78  74  87 CALM      30.04R
TEMPLE         SUNNY     77  74  90 N6        30.06R
KILLEEN        SUNNY     77  72  85 N9        30.07R
KILLEEN-SKYLRK SUNNY     77  73  87 N6        30.07R
FORT HOOD      SUNNY     74  71  89 N5        30.06R
GATESVILLE     SUNNY     75  72  88 N5        30.10R
HAMILTON       SUNNY     76  73  88 NE6       30.11R
LAMPASAS       SUNNY     78  74  87 N5        30.08R
$$

TXZ095>097-106>112-122>126-135>138-148>153-164>167-291500-
EAST TEXAS

CITY           SKY/WX    TMP DP  RH WIND       PRES   REMARKS
PARIS          SUNNY     82  64  54 E5        30.07R
SULPHUR SPRNGS SUNNY     81  70  70 E3        30.08R
MOUNT PLEASANT SUNNY     81  70  69 E3        30.07S
GILMER         SUNNY     80  72  76 N3        30.05R
MINEOLA        SUNNY     82  73  74 CALM      30.06R
TYLER          SUNNY     83  71  67 NE5       30.04R
LONGVIEW       SUNNY     78  73  84 VRB6      30.03R
MARSHALL       SUNNY     78  72  81 E3        30.06R
ATHENS         SUNNY     79  73  83 CALM      30.03R
PALESTINE      SUNNY     81  76  82 NE5       30.05R
JACKSONVILLE   SUNNY     80  73  80 NE5       30.06S
HENDERSON      SUNNY     81  72  76 E5        30.04S
CENTER         FAIR     N/A N/A N/A MISG      30.02R
NACOGDOCHES    SUNNY     81  72  74 E7        30.02R
LUFKIN         MOSUNNY   79  74  84 E5        30.01S
$$

SUPPLEMENTAL OBSERVATIONS (CENTRAL)

CITY           SKY/WX    TMP DP  RH WIND       PRES   REMARKS
LAKE TEXOMA      N/A     79  66  65 CALM        N/A
CADDO GRASSLND   N/A     84  70  61 NE1         N/A
PAT MAYSE LAKE   N/A     81  72  74 E1          N/A
GREENVILLE       N/A     82  70  65 E5          N/A
CEDAR HILL       N/A     86  73  66 E1          N/A  HX  93
LAKE LIMESTONE   N/A     82  75  78 NE6         N/A
MCGREGOR         N/A     81  75  83 N6          N/A
TEMPLE           N/A     79  72  78 N5          N/A
$$

SUPPLEMENTAL OBSERVATIONS (WEST)

CITY           SKY/WX    TMP DP  RH WIND       PRES   REMARKS
POSSUM KINGDOM   N/A     82  72  69 SE2         N/A
LBJ GRASSLAND    N/A     84  70  61 E1          N/A
GRANBURY         N/A     81  73  78 N3          N/A
COMANCHE         N/A     79  72  78 N5          N/A
HAMBY            N/A     77  70  78 W1          N/A
IVIE RESERVOIR   N/A     79  70  73 SE3         N/A
COLORADO BEND    N/A     81  70  69 E1          N/A
$$

SUPPLEMENTAL OBSERVATIONS (EAST)

CITY           SKY/WX    TMP DP  RH WIND       PRES   REMARKS
CLARKSVILLE      N/A     82  70  65 E3          N/A
TEXARKANA        N/A     84  73  70 NE1         N/A  HX  91
LINDEN           N/A     82  72  69 NE2         N/A
CADDO LAKE       N/A     84  73  70 NE3         N/A  HX  91
GILMER           N/A     82  72  69 NE3         N/A
HENDERSON        N/A     82  72  69 E5          N/A
LUFKIN           N/A     81  75  83 MISG        N/A
S SABINE NF      N/A     81  73  78 N3          N/A
$$

SUPPLEMENTAL OBSERVATIONS ARE A COLLECTION OF AUTOMATED INSTRUMENTS
THAT ARE MAINTAINED BY A VARIETY OF FEDERAL AND STATE AGENCIES.
CERTAIN ELEMENTS...SUCH AS HUMIDITY VALUES AND SUSTAINED WIND
SPEEDS...MAY BE APPROXIMATED.




USA.gov is the U.S. government's official web portal to all federal, state and local government web resources and services.